Terminal Aerodrome Forecast
Issued by NWS Mt. Holly, NJ

Home | Current Version | Previous Version | Text Only | Print | Product List | Glossary On
Versions: 1 2 3 4 5 6 7 8 9 10 11 12 13
000
FTUS41 KPHI 310500
TAFILG
TAF
KILG 310526Z 3106/0106 18008KT P6SM SCT020 OVC040
      TEMPO 3108/3111 BKN012 OVC030
     FM311100 18006KT P6SM OVC010
     FM311500 21012KT P6SM SCT020 BKN035
     FM312100 21010KT 3SM SHRA SCT025 OVC050
     FM010200 21006KT P6SM VCSH SCT035 OVC080=

USA.gov is the U.S. government's official web portal to all federal, state and local government web resources and services.